Location: Orange Harbor Mobile Home Park
(26.6923°N, 81.7937°W)
Time: 10:57:53
(UTC+00:00)

N. Korean satellite - Visible Passes

Search period start: 22 June 2021 00:00
Search period end: 02 July 2021 00:00
Orbit: 450 x 499 km, 97.2° (Epoch: 21 June)

Date Brightness Start Highest point End Pass type
(mag) Time Alt. Az. Time Alt. Az. Time Alt. Az.
22 Jun 9.3 09:57:52 10° NE 10:00:34 20° E 10:03:17 10° SE visible
26 Jun 9.7 09:43:10 10° ENE 09:44:35 12° E 09:45:59 10° ESE visible
29 Jun 9.4 09:53:26 10° NE 09:55:56 17° E 09:58:25 10° SE visible
